Starlink 5559

operational
NORAD ID: 56335 Int'l Des: 2023-058 Owner: SPXS Country: US Constellation: starlink
LEOCIRCULARRETROGRADESSO

Starlink 5559について

説明を読み込み中...

リアルタイム位置

3D地球を読み込み中...

次回通過

高度履歴

Altitude vs Time

uPlot chart will show altitude changes over time

軌道要素

1 56335U 23058U 26036.41500924 .00000520 00000-0 40274-4 0 9990
2 56335 97.6064 39.4549 0001702 86.1518 273.9903 15.05647032153341
Epoch: Feb 5, 2026 • Age: 7 hours

現在のステータス

高度 555.9 km
速度 7.59 km/s
衛星直下点 46.49°N, 162.01°W
打ち上げ日 Apr 27, 2023
運用期間 2.7 years
タイプ internet

技術仕様

分類 Payload
質量 300.00 kg
乾燥質量 260.00 kg
総質量 300.00 kg
長さ 0.20 m
直径 2.80 m
スパン 9.00 m
形状 Box + pan
製造者 SPXS
バスタイプ Starlink
フェーズステータス In Orbit
所有者/国 SPXS/US

大規模コンステレーション

Loading constellations...